DW7628 Weather Reports


time (UTC)temp
C
wind
direction
speed
KPH
gust
KPH
rain 1hr
cm
rain 24hr
cm
rain mn
cm
humidity
%
barometer
mb
20260504141306 18 253 0.0 0.0 0.00 0.00 0.00 61 1016.7
20260504140805 18 138 0.0 0.0 0.00 0.00 0.00 61 1016.8
20260504140305 18 128 0.0 0.0 0.00 0.00 0.00 61 1016.8
20260504130306 20 288 0.0 0.0 0.00 0.00 0.00 48 1017.4
20260504120305 20 241 0.0 0.0 0.00 0.00 0.00 47 1017.6
20260504110305 20 289 0.0 0.0 0.00 0.00 0.00 45 1018.2
20260504081804 16 260 0.0 0.0 0.00 0.00 0.00 54 1019.1
20260504080804 16 303 0.0 0.0 0.00 0.00 0.00 55 1019.0
20260504080304 16 292 0.0 0.0 0.00 0.00 0.00 55 1019.0
20260504070305 14 129 0.0 0.0 0.00 0.00 0.00 62 1018.7
20260504050304 10 239 0.0 0.0 0.00 0.00 0.00 79 1018.4
20260504045805 10 239 0.0 0.0 0.00 0.00 0.00 80 1018.3
20260504045305 10 239 0.0 0.0 0.00 0.00 0.00 80 1018.3
20260504044804 10 239 0.0 0.0 0.00 0.00 0.00 80 1018.3
20260504044305 10 239 0.0 0.0 0.00 0.00 0.00 80 1018.2
20260504043804 10 239 0.0 0.0 0.00 0.00 0.00 80 1018.1
20260504042305 10 239 0.0 0.0 0.00 0.00 0.00 82 1018.0
20260504041804 10 239 0.0 0.0 0.00 0.00 0.00 82 1018.0
20260504040804 10 239 0.0 0.0 0.00 0.00 0.00 82 1017.8
20260504035805 10 239 0.0 0.0 0.00 0.00 0.00 84 1017.7
20260504034304 10 239 0.0 0.0 0.00 0.00 0.00 85 1017.7
20260504032804 10 232 0.0 0.0 0.00 0.00 0.00 87 1017.6
20260504032304 10 232 0.0 0.0 0.00 0.00 0.00 87 1017.6
20260504031804 10 232 0.0 0.0 0.00 0.00 0.00 87 1017.6
20260504031304 10 236 0.0 0.0 0.00 0.00 0.00 86 1017.6
20260504030804 10 236 0.0 0.0 0.00 0.00 0.00 85 1017.6
20260504030304 10 236 0.0 0.0 0.00 0.00 0.00 85 1017.6
20260504025804 10 236 0.0 0.0 0.00 0.00 0.00 85 1017.6
20260504025304 10 236 0.0 0.0 0.00 0.00 0.00 85 1017.7
20260504024804 10 236 0.0 0.0 0.00 0.00 0.00 86 1017.7
20260504022804 10 236 0.0 0.0 0.00 0.00 0.00 86 1018.0
20260504022305 10 236 0.0 0.0 0.00 0.00 0.00 85 1018.0
20260504020303 10 236 0.0 0.0 0.00 0.00 0.00 83 1018.1
20260504015305 10 236 0.0 0.0 0.00 0.00 0.00 82 1018.0
20260504014804 11 236 0.0 0.0 0.00 0.00 0.00 82 1018.0
20260504014304 11 236 0.0 0.0 0.00 0.00 0.00 82 1018.0
20260504013804 11 236 0.0 0.0 0.00 0.00 0.00 82 1018.0
20260504013304 11 236 0.0 0.0 0.00 0.00 0.00 82 1017.9
20260504012803 11 236 0.0 0.0 0.00 0.00 0.00 83 1018.0
20260504012304 11 236 0.0 0.0 0.00 0.00 0.00 83 1018.0
20260504011803 11 236 0.0 0.0 0.00 0.00 0.00 83 1018.1
20260504011304 11 236 0.0 0.0 0.00 0.00 0.00 83 1018.0
20260504010804 11 236 0.0 0.0 0.00 0.00 0.00 83 1018.1
20260504010304 11 236 0.0 0.0 0.00 0.00 0.00 83 1018.0
20260504005804 11 236 0.0 0.0 0.00 0.00 0.00 83 1018.0
20260504005305 11 236 0.0 0.0 0.00 0.00 0.00 84 1018.0
20260504004804 11 236 0.0 0.0 0.00 0.00 0.00 84 1018.0
20260504004303 11 236 0.0 0.0 0.00 0.00 0.00 85 1017.9
20260504003804 11 236 0.0 0.0 0.00 0.00 0.00 85 1018.0
20260504003303 11 236 0.0 0.0 0.00 0.00 0.00 85 1018.0
20260504002806 11 236 0.0 0.0 0.00 0.00 0.00 86 1018.0
20260504001806 11 236 0.0 0.0 0.00 0.00 0.00 85 1018.0
20260504001306 11 236 0.0 0.0 0.00 0.00 0.00 84 1018.1
20260504000806 11 236 0.0 0.0 0.00 0.00 0.00 84 1018.1
20260504000306 11 235 0.0 0.0 0.00 0.00 0.00 84 1018.2
20260503235806 11 235 0.0 0.0 0.00 0.00 0.00 83 1018.3
20260503235306 11 235 0.0 0.0 0.00 0.00 0.00 83 1018.3
20260503234806 11 235 0.0 0.0 0.00 0.00 0.00 83 1018.3
20260503234306 11 235 0.0 0.0 0.00 0.00 0.00 84 1018.3
20260503233806 11 235 0.0 0.0 0.00 0.00 0.00 83 1018.4
20260503233306 11 235 0.0 0.0 0.00 0.00 0.00 83 1018.3
20260503232806 11 235 0.0 0.0 0.00 0.00 0.00 83 1018.4
20260503232306 11 235 0.0 0.0 0.00 0.00 0.00 82 1018.4
20260503231806 11 235 0.0 0.0 0.00 0.00 0.00 82 1018.4
20260503231306 11 235 0.0 0.0 0.00 0.00 0.00 82 1018.4
20260503230806 11 233 0.0 0.0 0.00 0.00 0.00 82 1018.5
20260503230306 11 230 0.0 0.0 0.00 0.00 0.00 81 1018.5
20260503225806 11 239 0.0 0.0 0.00 0.00 0.00 80 1018.5
20260503225306 11 233 0.0 0.0 0.00 0.00 0.00 79 1018.6
20260503224806 11 225 0.0 0.0 0.00 0.00 0.00 78 1018.5
20260503224306 11 51 0.0 0.0 0.00 0.00 0.00 76 1018.6
20260503223306 11 317 0.0 0.0 0.00 0.00 0.00 75 1018.7
20260503222806 11 263 0.0 0.0 0.00 0.00 0.00 76 1018.7
20260503222306 11 281 0.0 0.0 0.00 0.00 0.00 76 1018.6
20260503221806 11 281 0.0 0.0 0.00 0.00 0.00 77 1018.7
20260503221306 11 278 0.0 0.0 0.00 0.00 0.00 79 1018.7
20260503220827 11 278 0.0 0.0 0.00 0.00 0.00 77 1018.9
20260503220306 11 278 0.0 0.0 0.00 0.00 0.00 77 1018.9
20260503215806 11 278 0.0 0.0 0.00 0.00 0.00 77 1018.8
20260503215306 11 278 0.0 0.0 0.00 0.00 0.00 78 1018.6
20260503214806 12 278 0.0 0.0 0.00 0.00 0.00 77 1018.6
20260503213806 12 278 0.0 0.0 0.00 0.00 0.00 78 1018.7
20260503213306 12 278 0.0 0.0 0.00 0.00 0.00 78 1018.7
20260503212805 12 39 0.0 0.0 0.00 0.00 0.00 77 1018.6
20260503212306 12 39 0.0 0.0 0.00 0.00 0.00 77 1018.6
20260503211306 12 58 0.0 0.0 0.00 0.00 0.00 78 1018.5
20260503210806 12 288 0.0 0.0 0.00 0.00 0.00 78 1018.6
20260503210306 12 41 0.0 0.0 0.00 0.00 0.00 77 1018.6
20260503205307 12 41 0.0 0.0 0.00 0.00 0.00 77 1018.6
20260503204307 12 40 0.0 0.0 0.00 0.00 0.00 76 1018.5
20260503203305 12 40 0.0 0.0 0.00 0.00 0.00 76 1018.4
20260503202806 12 40 0.0 0.0 0.00 0.00 0.00 76 1018.3
20260503202305 12 40 0.0 0.0 0.00 0.00 0.00 76 1018.3
20260503201806 12 39 0.0 0.0 0.00 0.00 0.00 76 1018.3
20260503201305 12 39 0.0 0.0 0.00 0.00 0.00 76 1018.3
20260503200805 12 38 0.0 0.0 0.00 0.00 0.00 76 1018.2
20260503200306 12 35 0.0 0.0 0.00 0.00 0.00 76 1018.2
20260503195805 12 36 0.0 0.0 0.00 0.00 0.00 75 1018.3
20260503195306 12 87 0.0 0.0 0.00 0.00 0.00 76 1018.2
20260503194805 12 87 0.0 0.0 0.00 0.00 0.00 76 1018.2
20260503194306 12 82 0.0 0.0 0.00 0.00 0.00 76 1018.2
20260503193805 12 20 0.0 0.0 0.00 0.00 0.00 75 1018.1
20260503193306 12 44 0.0 0.0 0.00 0.00 0.00 75 1018.0
20260503192807 12 24 0.0 0.0 0.00 0.00 0.00 75 1018.0
20260503192306 12 42 0.0 0.0 0.00 0.00 0.00 75 1018.0
20260503190306 13 64 0.0 0.0 0.00 0.00 0.00 74 1017.9
20260503184806 13 158 0.0 0.0 0.00 0.00 0.00 73 1017.9
20260503183306 13 238 0.0 0.0 0.00 0.00 0.00 73 1017.7
20260503182306 13 223 0.0 0.0 0.00 0.00 0.00 72 1017.7
20260503180305 14 230 0.0 0.0 0.00 0.00 0.00 71 1017.6
20260503175806 14 231 0.0 0.0 0.00 0.00 0.00 71 1017.5
20260503175305 14 237 0.0 0.0 0.00 0.00 0.00 71 1017.5
20260503174805 14 223 0.0 0.0 0.00 0.00 0.00 70 1017.4
20260503174306 14 262 0.0 0.0 0.00 0.00 0.00 70 1017.4
20260503173805 15 166 0.0 0.0 0.00 0.00 0.00 70 1017.4
20260503173305 15 124 0.0 0.0 0.00 0.00 0.00 70 1017.3
20260503172305 15 228 0.0 0.0 0.00 0.00 0.00 70 1017.2
20260503171806 15 297 0.0 0.0 0.00 0.00 0.00 70 1017.2
20260503171306 15 247 0.0 0.0 0.00 0.00 0.00 70 1017.2
20260503170306 15 241 0.0 0.0 0.00 0.00 0.00 69 1017.1
20260503150805 20 176 0.0 0.0 0.00 0.00 0.00 52 1016.9
20260503150306 20 12 0.0 0.0 0.00 0.00 0.00 51 1016.9